Overview Statistics Trail Chart Weather Telemetry Raw packets
 

This is the latest recevied weather packets stored in our database for station/object YO8SHU-10. If no packets are shown the sender has not sent any weather packets the latest 10 day(s).

<< 1 2 3 4 5 6 7 >>
Time Temp. Humidity Pressure Rain* Wind** Luminosity Snow
1788501653 20° C 100% 1023.1 hPa - - - -
1788499853 20.56° C 100% 1022.7 hPa - - - -
1788498053 17.22° C 100% 1022.8 hPa - - - -
1788496253 16.11° C 100% 1022.8 hPa - - - -
1788494453 17.78° C 100% 1022.8 hPa - - - -
1788492652 15° C 100% 1022.9 hPa - - - -
1788490852 14.44° C 100% 1023 hPa - - - -
1788489052 15° C 100% 1023 hPa - - - -
1788487252 15.56° C 100% 1023.3 hPa - - - -
1788485451 15° C 100% 1023 hPa - - - -
1788483651 15° C 100% 1022.8 hPa - - - -
1788481851 14.44° C 100% 1022.8 hPa - - - -
1788480051 15.56° C 100% 1022.8 hPa - - - -
1788478251 15.56° C 100% 1022.8 hPa - - - -
1788476451 16.11° C 100% 1022.9 hPa - - - -
1788474651 16.11° C 100% 1022.9 hPa - - - -
1788472851 16.11° C 100% 1023 hPa - - - -
1788471051 17.22° C 100% 1023 hPa - - - -
1788469251 17.22° C 100% 1023.2 hPa - - - -
1788467450 17.78° C 100% 1023.4 hPa - - - -
1788465650 17.78° C 100% 1023.3 hPa - - - -
1788463850 18.33° C 100% 1023.3 hPa - - - -
1788462050 18.89° C 100% 1023.4 hPa - - - -
1788460250 20° C 100% 1023.7 hPa - - - -
1788458450 20° C 100% 1023.3 hPa - - - -

* Rain since midnight (hover to see other rain measurements)
** Current wind speed in m/s (hover to see current wind gust speed)